Radiation Dose measured at Intake/Vertical shaft monitor
Date,Time,Intake(cps),Vertical shaft(cps),Rain
2023/11/13,00:00,17.0,7.3,Yes
2023/11/13,00:10,17.0,7.4,Yes
2023/11/13,00:20,17.0,7.3,Yes
2023/11/13,00:30,16.0,7.1,Yes
2023/11/13,00:40,16.0,7.2,Yes
2023/11/13,00:50,16.0,6.8,Yes
2023/11/13,01:00,16.0,6.7,Yes
2023/11/13,01:10,16.0,6.7,Yes
2023/11/13,01:20,16.0,6.7,Yes
2023/11/13,01:30,15.0,6.8,Yes
2023/11/13,01:40,15.0,6.5,Yes
2023/11/13,01:50,15.0,6.6,Yes
2023/11/13,02:00,15.0,6.4,No
2023/11/13,02:10,14.0,6.4,No
2023/11/13,02:20,14.0,6.0,No
2023/11/13,02:30,13.0,6.0,No
2023/11/13,02:40,12.0,5.6,No
2023/11/13,02:50,12.0,5.6,No
2023/11/13,03:00,12.0,5.5,No
2023/11/13,03:10,11.0,5.4,No
2023/11/13,03:20,11.0,5.1,No
2023/11/13,03:30,11.0,5.0,No
2023/11/13,03:40,10.0,5.0,No
2023/11/13,03:50,10.0,4.9,No
2023/11/13,04:00,10.0,4.8,No
2023/11/13,04:10,9.9,4.9,No
2023/11/13,04:20,9.8,4.9,No
2023/11/13,04:30,9.8,4.7,No
2023/11/13,04:40,9.7,4.8,No
2023/11/13,04:50,9.8,4.8,No
2023/11/13,05:00,9.7,4.8,No
2023/11/13,05:10,9.8,4.8,No
2023/11/13,05:20,9.6,4.8,No
2023/11/13,05:30,9.5,4.9,No
2023/11/13,05:40,9.4,4.8,No
2023/11/13,05:50,9.5,4.8,No
2023/11/13,06:00,9.6,4.7,No
2023/11/13,06:10,9.2,4.7,No
2023/11/13,06:20,9.6,4.8,No
2023/11/13,06:30,9.4,4.8,No
2023/11/13,06:40,9.3,4.9,No
2023/11/13,06:50,9.6,4.6,No
2023/11/13,07:00,9.5,4.7,No
2023/11/13,07:10,9.5,4.6,No
2023/11/13,07:20,9.5,4.7,No
2023/11/13,07:30,9.4,4.7,No
2023/11/13,07:40,9.4,4.7,No
2023/11/13,07:50,9.4,4.7,No
2023/11/13,08:00,9.3,4.8,No
2023/11/13,08:10,9.4,4.8,No
2023/11/13,08:20,9.4,4.8,No
2023/11/13,08:30,9.5,4.7,No
2023/11/13,08:40,9.4,4.8,No
2023/11/13,08:50,9.4,4.7,No
2023/11/13,09:00,9.2,4.8,No
2023/11/13,09:10,9.6,4.6,No
2023/11/13,09:20,9.3,4.8,No
2023/11/13,09:30,9.3,4.8,No
2023/11/13,09:40,9.4,4.8,No
2023/11/13,09:50,9.5,4.8,No
2023/11/13,10:00,9.4,4.8,No
2023/11/13,10:10,9.6,4.8,No
2023/11/13,10:20,9.4,4.7,No
2023/11/13,10:30,9.5,4.8,No
2023/11/13,10:40,9.7,4.8,No
2023/11/13,10:50,9.9,4.8,No
2023/11/13,11:00,9.9,4.8,No
2023/11/13,11:10,9.7,4.9,No
2023/11/13,11:20,9.5,4.9,No
2023/11/13,11:30,9.6,4.8,No
2023/11/13,11:40,9.5,4.8,No
2023/11/13,11:50,9.5,4.7,No
2023/11/13,12:00,9.5,4.8,No
2023/11/13,12:10,9.5,4.8,No
2023/11/13,12:20,9.6,4.8,No
2023/11/13,12:30,9.5,4.8,No
2023/11/13,12:40,9.3,4.7,No
2023/11/13,12:50,9.7,4.9,Yes
2023/11/13,13:00,9.6,4.9,No
2023/11/13,13:10,9.8,4.8,No
2023/11/13,13:20,9.7,5.0,No
2023/11/13,13:30,9.7,4.9,No
2023/11/13,13:40,9.8,4.8,No
2023/11/13,13:50,9.6,4.9,No
2023/11/13,14:00,9.5,4.8,No
2023/11/13,14:10,9.7,4.8,No
2023/11/13,14:20,9.7,5.0,No
2023/11/13,14:30,9.6,4.8,No
2023/11/13,14:40,9.7,4.9,No
2023/11/13,14:50,9.6,4.8,No
2023/11/13,15:00,9.5,4.8,No
2023/11/13,15:10,9.8,4.9,No
2023/11/13,15:20,9.5,4.8,No
2023/11/13,15:30,9.6,4.7,No
2023/11/13,15:40,9.9,4.8,No
2023/11/13,15:50,9.7,4.8,No
2023/11/13,16:00,9.7,4.8,No
2023/11/13,16:10,9.6,4.7,No
2023/11/13,16:20,9.6,4.9,No
2023/11/13,16:30,9.7,4.6,No
2023/11/13,16:40,9.6,4.8,No
2023/11/13,16:50,9.7,4.8,No
2023/11/13,17:00,9.9,4.8,No
2023/11/13,17:10,9.6,4.9,No
2023/11/13,17:20,9.6,4.9,No
2023/11/13,17:30,9.7,4.6,No
2023/11/13,17:40,9.7,4.7,No
2023/11/13,17:50,9.6,4.6,No
2023/11/13,18:00,9.7,4.7,No
2023/11/13,18:10,9.8,4.9,No
2023/11/13,18:20,9.9,4.7,No
2023/11/13,18:30,9.7,4.7,No
2023/11/13,18:40,9.7,4.8,No
2023/11/13,18:50,9.8,4.7,No
2023/11/13,19:00,9.7,4.8,No
2023/11/13,19:10,9.7,4.8,No
2023/11/13,19:20,9.7,4.8,No
2023/11/13,19:30,9.8,4.7,No
2023/11/13,19:40,9.7,4.7,No
2023/11/13,19:50,9.6,4.8,No
2023/11/13,20:00,9.9,4.8,No
2023/11/13,20:10,9.8,4.8,No
2023/11/13,20:20,9.9,4.8,No
2023/11/13,20:30,9.8,4.7,No
2023/11/13,20:40,9.7,4.5,No
2023/11/13,20:50,9.7,4.7,No
2023/11/13,21:00,9.6,4.8,No
2023/11/13,21:10,9.7,4.8,No
2023/11/13,21:20,9.8,4.8,No
2023/11/13,21:30,9.6,4.8,No
2023/11/13,21:40,9.9,4.8,No
2023/11/13,21:50,9.9,4.8,No
2023/11/13,22:00,9.8,4.9,No
2023/11/13,22:10,9.6,4.7,No
2023/11/13,22:20,9.8,4.8,No
2023/11/13,22:30,9.6,4.8,No
2023/11/13,22:40,9.7,4.7,No
2023/11/13,22:50,9.7,4.8,No
2023/11/13,23:00,9.8,4.7,No
2023/11/13,23:10,9.8,4.8,No
2023/11/13,23:20,9.6,4.8,No
2023/11/13,23:30,9.7,4.9,No
2023/11/13,23:40,9.7,4.9,No
2023/11/13,23:50,9.7,4.7,No
